729  
ASUS41 KRLX 171910  
RWRRLX  
REGIONAL WEATHER ROUNDUP  
NATIONAL WEATHER SERVICE CHARLESTON WV  
300 PM EDT TUE SEP 17 2019  
 
NOTE: "FAIR" INDICATES FEW OR NO CLOUDS BELOW 12,000 FEET WITH NO  
SIGNIFICANT WEATHER AND/OR S TO VISIBILITY
.  
 
WVZ003-172000-  
NORTHERN PANHANDLE OF WEST VIRGINIA  
 
CITY SKY/WX TMP DP RH WIND PRES REMARKS
 
WHEELING FAIR 80 61 52 NE12 30.12F  

 
 
WVZ009-172000-  
NORTHWEST WEST VIRGINIA  
 
CITY SKY/WX TMP DP RH WIND PRES REMARKS
 
PARKERSBURG FAIR 81 63 54 VRB5 30.12F  

 
 
WVZ006-172000-  
WESTERN WEST VIRGINIA  
 
CITY SKY/WX TMP DP RH WIND PRES REMARKS
 
HUNTINGTON FAIR 86 61 42 CALM 30.06F  

 
 
WVZ015-172000-  
WEST CENTRAL WEST VIRGINIA  
 
CITY SKY/WX TMP DP RH WIND PRES REMARKS
 
CHARLESTON FAIR 87 62 43 NW5G16 30.05F  

 
 
WVZ022-031-172000-  
NORTH CENTRAL WEST VIRGINIA  
 
CITY SKY/WX TMP DP RH WIND PRES REMARKS
 
MORGANTOWN FAIR 79 59 50 NE7 30.12F  
CLARKSBURG FAIR 82 61 48 NE9 30.09F  
BUCKHANNON FAIR 81 63 54 NE8G15 30.10S  

 
 
WVZ025-035-042-045-172000-  
SOUTHERN WEST VIRGINIA  
 
CITY SKY/WX TMP DP RH WIND PRES REMARKS
 
BECKLEY FAIR 84 58 40 NW6 30.10F  
LOGAN FAIR 86 61 42 N8 30.07F  
PINEVILLE CLOUDY 89 60 38 MISG 30.10F  
BLUEFIELD PTSUNNY 81 57 43 VRB7 30.12F  
LEWISBURG PTSUNNY 83 62 48 S3 30.10F  

 
 
WVZ047-172000-  
NORTHERN MOUNTAINS OF WEST VIRGINIA  
 
CITY SKY/WX TMP DP RH WIND PRES REMARKS
 
ELKINS FAIR 76 59 55 VRB6G16 30.12F  

 
 
WVZ052-172000-  
EASTERN PANHANDLE OF WEST VIRGINIA  
 
CITY SKY/WX TMP DP RH WIND PRES REMARKS
 
MARTINSBURG FAIR 79 58 48 E7 30.10F  
PETERSBURG CLOUDY 72 62 70 N6 30.13F  

 
 
SOUTHEAST OHIO/NORTHEAST KENTUCKY  
 
CITY SKY/WX TMP DP RH WIND PRES REMARKS
 
ATHENS PTSUNNY 75 65 70 N7 30.11F  
ASHLAND FAIR 86 66 51 VRB3 30.06F  

 
 
 
CLICK HERE TO GO TO PREVIOUS BULLETINS.

The Nexlab WV Page
The Nexlab OH Page
The Nexlab KY Page
The Nexlab VA Page Main Text Page